Location: Rotheul
(50.2849°N, 11.2349°E)
Time: 22:45:21
(UTC+02:00)

ISS - Pass Details

Date: 16 July 2018
Orbit: 402 x 408 km, 51.6° (Epoch: 16 July)

Event Time Altitude Azimuth Distance (km) Brightness Sun altitude
Exits shadow 00:59:18 25° 98° (E) 860 -2.3 -18.1°
Drops below altitude 10° 01:01:01 10° 80° (E) 1,469 -1.0 -18.2°
Sets 01:03:10 0° 73° (ENE) 2,333 0.2 -18.2°
